Probability
0 0 0 0 0 0 0 0 0 0 0 0 0 0 0 0 0 0 0 0 0 0 0 0 0 0 0 0 0 0 0 0 0 0 0 0 0 0
0 0 0 0 0 0 0 0 0 0 0 0 0 0 0 0 0 0 0 0 0 0 0 0 0 0 0 0 0 0 0 0 0 0 0 0 0 0
0 0 0 0 0 0 0 0 0 0 0 0 0 0 0 0 0 0 0 0 0 0 0 0 0 0 0 0 0 0 0 0 0 0 0 0 0 0
0 0 0 0 0 0 0 0 0 0 0 0 0 0 0 0 0 0 0 0 0 0 0 0 0 0 0 0 0 0 0 0 0 0 0 0 0 0
0 0 0 0 0 0 0 0 0 0 0 0 0 0 0 0 0 0 0 0 0 0 0 0 0 0 0 0 0 0 0 0 0 0 0 0 0 0
0 0 0 0 0 0 0 0 0 0 0 0 0 0 0 0 0 0 0 0 0 0 0 0 0 0 0 0 0 0 0 0 0 0 0 0 0 0
0 0 0 0 0 0 0 0 0 0 0 0 0 0 0 0 0 0 0 0 0 0 0 0 0 0 0 0 0 0 0 0 0 0 0 0 0 0
0 0 0 0 0 0 0 0 0 0 0 0 0 0 0 0 0 0 0 0 0 0 0 0 0 0 0 0 0 0 0 0 0 0 0 0 0 0
0 0 0 0 0 0 0 0 0 0 0 0 0 0 0 0 0 0 0 0 0 0 0 0 0 0 0 0 0 0 0 0 0 0 0 0 0 0
0 0 0 0 0 0 0 0 0 0 0 0 0 0 0 0 0 0 0 0 0 0 0 0 0 0 0 0 0 0 0 0 0 0 0 0 0 0
0 0 0 0 0 0 0 0 0 0 0 0 0 0 0 0 0 0 0 0 0 0 0 0 0 0 0 0 0 0 0 0 0 0 0 0 0 0
0 0 0 0 0 0 0 0 0 0 0 0 0 0 0 0 0 0 0 0 0 0 0 0 0 0 0 0 0 0 0 0 0 0 0 0 0 0
0 0 0 0 0 0 0 0 0 0 0 0 0 0 0 0 0 0 0 0 0 0 0 0 0 0 0 0 0 0 0 0 0 0 0 0 0 0
0 0 0 0 0 0 0 0 0 0 0 0 0 0 0 0 0 0 0 0 0 0 0 0 0 0 0 0 0 0 0 0 0 0 0 0 0 0
0 0 0 0 0 0 0 0 0 0 0 0 0 0 0 0 0 0 0 0 0 0 0 0 0 0 0 0 0 0 0 0 0 0 0 0 0 0
0 0 0 0 0 0 0 0 0 0 0 0 0 0 0 0 0 0 0 0 0 0 0 0 0 0 0 0 0 0 0 0 0 0 0 0 0 0
0 0 0 0 0 0 0 0 0 0 0 0 0 0 0 0 0 0 0 0 0 0 0 0 0 0 0 0 0 0 0 0 0 0 0 0 0 0
0 0 0 0 0 0 0 0 0 0 0 0 0 0 0 0 0 0 0 0 0 0 0 0 0 0 0 0 0 0 0 0 0 0 0 0 0 0
0 0 0 0 0 0 0 0 0 0 0 0 0 0 0 0 0 0 0 0 0 0 0 0 0 0 0 0 0 0 0 0 0 0 0 0 0 0
0 0 0 0 0 0 0 0 0 0 0 0 0 0 0 0 0 0 0 0 0 0 0 0 0 0 0 0 0 0 0 0 0 0 0 0 0 0
0 0 0 0 0 0 0 0 0 0 0 0 0 0 0 0 0 0 0 0 0 0 0 0 0 0 0 0 0 0 0 0 0 0 0 0 0 0
0 0 0 0 0 0 0 0 0 0 0 0 0 0 0 0 0 0 0 0 0 0 0 0 0 0 0 0 0 0 0 0 0 0 0 0 0 0
0 0 0 0 0 0 0 0 0 0 0 0 0 0 0 0 0 0 0 0 0 0 0 0 0 0 0 0 0 0 0 0 0 0 0 0 0 0
Wind_Speed
3 3 3 2 3 2 2 3 3 2 3 2 1 1 1 1 1 2 2 2 3 3 3 3 2 1 1 1 2 2 3 3 3 4 5 5 6 8
3 3 3 2 2 2 2 2 2 3 2 2 2 2 1 1 1 1 1 2 3 3 3 2 1 1 1 2 2 3 3 4 5 6 6 6 7 8
3 3 3 3 2 2 2 2 1 2 2 2 1 1 0 1 1 1 1 0 1 2 2 2 1 1 2 2 2 3 4 4 5 6 7 7 8 8
3 3 3 3 3 2 2 2 2 2 3 2 1 1 1 1 0 1 1 1 1 2 2 2 2 2 2 2 3 4 4 5 6 6 7 7 8 9
4 4 3 3 3 2 2 2 2 1 2 2 2 1 1 0 0 1 1 1 1 2 2 3 3 3 3 3 4 4 5 5 6 6 6 7 8 9
2 3 3 4 4 4 3 3 3 2 2 2 1 1 1 0 1 0 1 1 2 2 2 3 3 3 4 4 5 5 5 5 6 7 7 7 7 8
2 2 3 3 3 3 3 3 4 3 2 2 2 1 1 1 1 1 1 1 1 1 1 2 2 2 2 4 5 5 5 6 6 7 7 7 7 8
2 2 2 3 3 3 3 3 3 4 4 3 2 2 3 2 1 1 1 1 2 1 1 2 1 2 3 2 5 6 6 6 6 7 7 7 8 8
1 1 1 2 2 3 2 2 1 2 3 4 3 3 3 3 2 2 2 2 3 1 1 3 2 3 3 4 6 6 6 6 6 6 6 7 7 7
1 2 2 2 2 3 3 2 1 1 2 2 2 3 2 2 3 3 3 2 1 1 1 2 2 3 3 3 5 5 6 6 6 7 7 7 7 7
1 1 1 1 2 3 3 3 1 0 1 0 0 0 0 1 1 1 1 1 2 2 1 1 2 3 3 3 4 5 6 6 6 7 7 8 8 7
1 1 1 1 1 2 2 3 2 1 1 1 1 1 1 0 1 1 2 2 1 2 1 1 2 1 3 2 2 3 3 5 7 8 8 8 8 4
1 1 1 2 1 1 1 2 3 2 1 1 1 0 0 0 1 1 0 1 2 2 1 1 1 1 2 3 3 2 2 3 3 5 7 8 8 6
1 1 1 2 2 2 1 2 2 1 1 1 1 0 0 0 1 1 1 1 1 3 2 2 2 2 2 3 4 3 2 2 2 3 3 6 7 8
1 2 2 3 3 2 3 3 1 1 1 1 1 1 1 1 1 1 1 1 1 1 1 2 2 2 2 3 4 3 3 3 2 2 3 3 3 3
2 2 3 4 3 3 2 2 1 1 0 1 1 1 0 0 0 1 1 1 1 2 2 2 2 2 2 3 3 4 3 3 2 3 3 3 3 3
1 1 1 1 1 1 1 2 1 1 1 1 0 0 0 0 1 1 1 1 1 2 3 3 2 2 2 3 3 4 3 3 3 3 3 4 4 3
1 1 1 1 1 1 1 1 1 1 1 1 0 0 1 1 1 1 1 1 1 2 2 2 2 3 3 3 4 4 3 3 3 3 2 3 5 4
1 1 1 0 0 0 0 1 1 1 1 1 1 1 1 1 1 2 2 2 2 2 2 2 1 1 2 4 4 3 3 3 3 3 3 3 5 5
1 0 0 0 0 0 0 1 1 1 1 1 1 1 1 2 2 2 2 2 2 2 2 2 2 2 4 4 4 4 5 4 3 4 4 3 4 7
1 1 1 1 1 1 1 1 1 1 1 1 2 2 2 2 2 3 3 4 3 3 3 3 4 5 2 1 3 4 4 5 5 4 3 3 4 4
1 1 1 1 1 1 1 1 1 2 2 2 2 2 2 2 3 3 3 3 3 3 4 3 3 2 2 3 5 5 5 4 5 7 7 6 3 3
1 1 1 2 1 1 1 2 2 2 2 2 2 3 3 3 3 3 3 3 3 4 3 3 2 2 3 3 4 4 5 5 4 4 4 6 9 10
Wind_Direction
183 179 175 181 174 176 163 163 165 197 234 236 253 272 258 224 249 224 232 260 263 266 270 279 282 289 283 260 259 261 256 252 248 252 260 267 266 265
183 177 178 179 171 173 172 176 170 176 215 219 228 265 275 292 286 261 242 297 281 278 279 280 278 287 279 276 274 266 260 252 247 251 258 262 264 268
184 178 184 172 170 174 166 171 175 160 204 248 228 278 253 266 313 318 312 274 284 291 292 282 264 259 268 271 270 270 266 261 257 257 256 259 263 268
183 176 182 169 173 175 171 181 191 181 178 209 236 242 236 240 280 297 323 325 294 298 291 275 268 273 272 278 282 280 278 273 266 262 259 263 267 271
179 177 180 167 179 179 176 182 185 184 169 176 217 235 252 311 26 329 334 319 319 309 293 274 268 272 272 278 282 284 282 276 273 268 264 266 269 272
176 180 182 179 186 183 183 183 175 171 168 171 191 218 244 269 142 227 316 320 308 321 307 301 294 288 283 282 284 287 285 280 278 275 272 270 269 273
169 175 176 173 184 183 182 181 175 176 176 180 196 206 223 210 219 211 240 289 295 293 298 302 300 292 290 290 288 284 283 282 281 279 275 272 273 276
169 173 163 162 162 167 168 173 178 182 188 197 213 211 224 230 222 222 226 254 278 284 277 293 303 289 289 279 292 293 287 284 282 281 279 279 278 278
156 159 166 161 164 161 152 147 161 190 200 201 202 224 227 223 212 228 238 247 250 256 269 279 282 278 286 288 290 290 291 290 288 289 290 287 284 282
130 146 168 171 172 159 148 145 147 194 217 208 200 220 228 225 214 220 221 239 266 296 257 262 276 277 297 296 299 298 302 301 298 296 290 288 287 286
103 122 136 145 154 152 144 142 132 24 19 101 59 283 308 290 238 157 184 214 265 274 263 249 278 291 290 284 295 307 305 302 301 302 298 294 292 291
82 83 95 121 147 145 158 158 166 200 154 88 30 7 350 353 348 222 210 219 247 259 243 233 263 298 297 286 293 305 305 303 305 306 303 298 298 289
99 84 86 88 84 85 155 181 182 184 165 156 160 153 26 24 339 329 258 218 231 249 244 233 257 264 261 287 296 290 290 296 299 298 303 305 304 298
77 59 80 84 82 62 49 110 122 117 128 128 136 175 239 289 298 300 305 286 260 250 245 228 242 250 258 274 279 291 294 289 286 290 292 302 303 303
72 76 57 59 57 52 63 70 69 95 124 148 196 240 259 263 283 316 343 342 332 320 300 260 243 250 243 251 266 275 289 288 276 280 290 292 291 298
58 71 62 56 47 44 45 41 41 61 135 183 208 240 295 322 316 310 302 310 314 317 323 316 285 257 257 263 259 268 264 272 288 287 288 285 282 278
89 59 57 62 55 51 38 34 35 39 33 24 141 199 242 289 308 309 287 297 283 295 311 324 322 302 268 253 260 261 265 269 272 281 288 291 285 276
73 94 87 70 60 42 40 24 23 23 12 1 334 252 245 253 276 294 294 275 274 277 284 297 321 335 330 295 245 252 255 264 277 280 273 282 290 286
70 96 106 125 113 12 353 349 333 330 329 304 298 305 268 251 255 263 268 271 272 272 274 274 277 275 288 289 285 248 248 274 287 284 273 265 277 288
42 54 22 300 292 283 287 302 302 304 299 288 271 266 273 261 253 254 255 256 265 273 276 268 248 239 241 256 269 275 270 262 260 272 281 282 279 286
2 346 326 317 313 304 296 291 281 270 271 273 269 264 260 260 258 254 255 265 266 260 262 260 254 268 262 263 278 279 276 276 274 268 273 284 290 290
337 320 310 302 296 291 286 281 277 270 267 261 262 262 262 257 260 260 257 255 254 254 260 267 272 260 231 243 265 275 286 295 295 292 283 263 254 261
319 308 298 293 290 287 275 270 267 267 263 259 257 256 255 258 261 264 264 259 259 259 264 269 271 255 247 248 260 272 281 291 297 301 293 291 283 278